Time,TemperatureF,DewpointF,PressureIn,WindDirection,WindDirectionDegrees,WindSpeedMPH,WindSpeedGustMPH,Humidity,HourlyPrecipIn,Conditions,Clouds,dailyrainin,SoftwareType,DateUTC
2013-05-05 00:02:00,43.0,38.0,30.31,East,92,0.0,1.0,84,0.00,,,0.00,,2013-05-05 04:02:00,
2013-05-05 00:12:00,43.0,38.0,30.31,East,92,0.0,1.0,84,0.00,,,0.00,,2013-05-05 04:12:00,
2013-05-05 00:23:00,42.0,38.0,30.31,East,92,0.0,0.0,85,0.00,,,0.00,,2013-05-05 04:23:00,
2013-05-05 00:33:00,42.0,38.0,30.32,East,92,0.0,0.0,87,0.00,,,0.00,,2013-05-05 04:33:00,
2013-05-05 00:43:00,42.0,38.0,30.32,East,92,0.0,0.0,87,0.00,,,0.00,,2013-05-05 04:43:00,
2013-05-05 00:53:00,41.0,38.0,30.32,East,92,0.0,0.0,88,0.00,,,0.00,,2013-05-05 04:53:00,
2013-05-05 01:02:00,41.0,38.0,30.32,East,92,0.0,0.0,89,0.00,,,0.00,,2013-05-05 05:02:00,
2013-05-05 01:12:00,41.0,38.0,30.32,East,92,0.0,0.0,89,0.00,,,0.00,,2013-05-05 05:12:00,
2013-05-05 01:22:00,40.0,37.0,30.32,East,92,0.0,0.0,89,0.00,,,0.00,,2013-05-05 05:22:00,
2013-05-05 01:32:00,41.0,38.0,30.32,East,91,0.0,0.0,90,0.00,,,0.00,,2013-05-05 05:32:00,
2013-05-05 01:42:00,41.0,38.0,30.32,East,91,0.0,0.0,90,0.00,,,0.00,,2013-05-05 05:42:00,
2013-05-05 01:52:00,40.0,37.0,30.31,East,91,0.0,0.0,90,0.00,,,0.00,,2013-05-05 05:52:00,
2013-05-05 02:01:00,40.0,38.0,30.31,East,91,0.0,0.0,91,0.00,,,0.00,,2013-05-05 06:01:00,
2013-05-05 02:12:00,40.0,38.0,30.31,East,91,0.0,0.0,91,0.00,,,0.00,,2013-05-05 06:12:00,
2013-05-05 02:21:00,39.0,37.0,30.30,East,92,0.0,0.0,91,0.00,,,0.00,,2013-05-05 06:21:00,
2013-05-05 02:32:00,39.0,37.0,30.29,East,92,0.0,0.0,92,0.00,,,0.00,,2013-05-05 06:32:00,
2013-05-05 02:42:00,39.0,37.0,30.29,East,92,0.0,0.0,92,0.00,,,0.00,,2013-05-05 06:42:00,
2013-05-05 02:52:00,38.0,36.0,30.29,East,91,0.0,0.0,92,0.00,,,0.00,,2013-05-05 06:52:00,
2013-05-05 03:01:00,38.0,36.0,30.29,East,91,0.0,0.0,93,0.00,,,0.00,,2013-05-05 07:01:00,
2013-05-05 03:11:00,38.0,36.0,30.29,East,91,0.0,0.0,93,0.00,,,0.00,,2013-05-05 07:11:00,
2013-05-05 03:22:00,37.0,35.0,30.30,East,92,0.0,0.0,93,0.00,,,0.00,,2013-05-05 07:22:00,
2013-05-05 03:32:00,37.0,35.0,30.30,East,92,0.0,0.0,94,0.00,,,0.00,,2013-05-05 07:32:00,
2013-05-05 03:42:00,37.0,35.0,30.30,East,92,0.0,0.0,94,0.00,,,0.00,,2013-05-05 07:42:00,
2013-05-05 03:52:00,37.0,35.0,30.30,East,92,0.0,0.0,94,0.00,,,0.00,,2013-05-05 07:52:00,
2013-05-05 04:02:00,37.0,35.0,30.30,East,92,0.0,0.0,94,0.00,,,0.00,,2013-05-05 08:02:00,
2013-05-05 04:11:00,37.0,35.0,30.30,East,92,0.0,0.0,94,0.00,,,0.00,,2013-05-05 08:11:00,
2013-05-05 04:21:00,38.0,37.0,30.30,ENE,61,2.0,5.0,95,0.00,,,0.00,,2013-05-05 08:21:00,
2013-05-05 04:32:00,39.0,38.0,30.30,ENE,63,0.0,1.0,95,0.00,,,0.00,,2013-05-05 08:32:00,
2013-05-05 04:42:00,39.0,38.0,30.30,ENE,63,0.0,1.0,95,0.00,,,0.00,,2013-05-05 08:42:00,
2013-05-05 04:53:00,39.0,38.0,30.30,North,359,0.0,2.0,95,0.00,,,0.00,,2013-05-05 08:53:00,
2013-05-05 05:01:00,39.0,38.0,30.30,East,82,0.0,2.0,95,0.00,,,0.00,,2013-05-05 09:01:00,
2013-05-05 05:11:00,39.0,38.0,30.30,East,82,0.0,2.0,95,0.00,,,0.00,,2013-05-05 09:11:00,
2013-05-05 05:21:00,38.0,36.0,30.30,ENE,61,0.0,2.0,94,0.00,,,0.00,,2013-05-05 09:21:00,
2013-05-05 05:33:00,37.0,35.0,30.30,ENE,61,0.0,0.0,94,0.00,,,0.00,,2013-05-05 09:33:00,
2013-05-05 05:42:00,37.0,35.0,30.30,ENE,61,0.0,0.0,94,0.00,,,0.00,,2013-05-05 09:42:00,
2013-05-05 05:52:00,37.0,35.0,30.30,ENE,61,0.0,0.0,94,0.00,,,0.00,,2013-05-05 09:52:00,
2013-05-05 06:03:00,36.0,34.0,30.31,ENE,60,0.0,0.0,94,0.00,,,0.00,,2013-05-05 10:03:00,
2013-05-05 06:12:00,36.0,34.0,30.31,ENE,60,0.0,0.0,94,0.00,,,0.00,,2013-05-05 10:12:00,
2013-05-05 06:22:00,35.0,33.0,30.31,ENE,61,0.0,0.0,94,0.00,,,0.00,,2013-05-05 10:22:00,
2013-05-05 06:32:00,35.0,33.0,30.32,ENE,61,0.0,0.0,94,0.00,,,0.00,,2013-05-05 10:32:00,
2013-05-05 06:42:00,35.0,33.0,30.32,ENE,61,0.0,0.0,94,0.00,,,0.00,,2013-05-05 10:42:00,
2013-05-05 06:52:00,35.0,34.0,30.32,ENE,61,0.0,0.0,95,0.00,,,0.00,,2013-05-05 10:52:00,
2013-05-05 07:02:00,38.0,37.0,30.32,ENE,61,0.0,0.0,95,0.00,,,0.00,,2013-05-05 11:02:00,
2013-05-05 07:12:00,38.0,37.0,30.32,ENE,61,0.0,0.0,95,0.00,,,0.00,,2013-05-05 11:12:00,
2013-05-05 07:22:00,40.0,38.0,30.32,East,87,0.0,5.0,91,0.00,,,0.00,,2013-05-05 11:22:00,
2013-05-05 07:32:00,42.0,39.0,30.32,ENE,58,0.0,1.0,89,0.00,,,0.00,,2013-05-05 11:32:00,
2013-05-05 07:42:00,42.0,39.0,30.32,ENE,58,0.0,1.0,89,0.00,,,0.00,,2013-05-05 11:42:00,
2013-05-05 07:52:00,42.0,37.0,30.32,ENE,75,4.0,7.0,83,0.00,,,0.00,,2013-05-05 11:52:00,
2013-05-05 08:02:00,42.0,37.0,30.33,East,85,4.0,6.0,81,0.00,,,0.00,,2013-05-05 12:02:00,
2013-05-05 08:11:00,42.0,37.0,30.33,East,85,4.0,6.0,81,0.00,,,0.00,,2013-05-05 12:11:00,
2013-05-05 08:22:00,43.0,37.0,30.33,NE,56,0.0,6.0,80,0.00,,,0.00,,2013-05-05 12:22:00,
2013-05-05 08:32:00,44.0,37.0,30.33,NE,51,2.0,5.0,76,0.00,,,0.00,,2013-05-05 12:32:00,
2013-05-05 08:42:00,44.0,37.0,30.33,NE,51,2.0,5.0,76,0.00,,,0.00,,2013-05-05 12:42:00,
2013-05-05 08:52:00,46.0,38.0,30.33,East,92,2.0,5.0,74,0.00,,,0.00,,2013-05-05 12:52:00,
2013-05-05 09:01:00,46.0,37.0,30.33,NNE,13,3.0,5.0,71,0.00,,,0.00,,2013-05-05 13:01:00,
2013-05-05 09:11:00,46.0,37.0,30.33,NNE,13,3.0,5.0,71,0.00,,,0.00,,2013-05-05 13:11:00,
2013-05-05 09:21:00,46.0,37.0,30.33,North,1,4.0,8.0,71,0.00,,,0.00,,2013-05-05 13:21:00,
2013-05-05 09:32:00,47.0,37.0,30.33,East,101,2.0,7.0,69,0.00,,,0.00,,2013-05-05 13:32:00,
2013-05-05 09:42:00,47.0,37.0,30.33,East,101,2.0,7.0,69,0.00,,,0.00,,2013-05-05 13:42:00,
2013-05-05 09:52:00,48.0,38.0,30.33,SE,132,4.0,7.0,67,0.00,,,0.00,,2013-05-05 13:52:00,
2013-05-05 10:02:00,49.0,38.0,30.32,SSW,197,1.0,6.0,65,0.00,,,0.00,,2013-05-05 14:02:00,
2013-05-05 10:11:00,49.0,38.0,30.32,SSW,197,1.0,6.0,65,0.00,,,0.00,,2013-05-05 14:11:00,
2013-05-05 10:21:00,50.0,38.0,30.32,ENE,58,1.0,8.0,64,0.00,,,0.00,,2013-05-05 14:21:00,
2013-05-05 10:32:00,51.0,38.0,30.31,NE,46,4.0,9.0,60,0.00,,,0.00,,2013-05-05 14:32:00,
2013-05-05 10:42:00,51.0,38.0,30.31,NE,46,4.0,9.0,60,0.00,,,0.00,,2013-05-05 14:42:00,
2013-05-05 10:52:00,52.0,39.0,30.31,NW,308,1.0,8.0,62,0.00,,,0.00,,2013-05-05 14:52:00,
2013-05-05 11:02:00,54.0,38.0,30.30,ESE,110,2.0,6.0,55,0.00,,,0.00,,2013-05-05 15:02:00,
2013-05-05 11:11:00,54.0,38.0,30.30,ESE,110,2.0,6.0,55,0.00,,,0.00,,2013-05-05 15:11:00,
2013-05-05 11:21:00,55.0,39.0,30.30,ESE,110,2.0,6.0,54,0.00,,,0.00,,2013-05-05 15:21:00,
2013-05-05 11:33:00,56.0,39.0,30.30,SSW,201,0.0,7.0,53,0.00,,,0.00,,2013-05-05 15:33:00,
2013-05-05 11:43:00,56.0,39.0,30.30,SSW,201,0.0,7.0,53,0.00,,,0.00,,2013-05-05 15:43:00,
2013-05-05 11:53:00,56.0,39.0,30.29,ENE,61,2.0,7.0,52,0.00,,,0.00,,2013-05-05 15:53:00,
2013-05-05 12:03:00,57.0,39.0,30.29,WNW,300,3.0,6.0,50,0.00,,,0.00,,2013-05-05 16:03:00,
2013-05-05 12:12:00,57.0,39.0,30.29,WNW,300,3.0,6.0,50,0.00,,,0.00,,2013-05-05 16:12:00,
2013-05-05 12:23:00,57.0,38.0,30.29,ENE,77,3.0,7.0,49,0.00,,,0.00,,2013-05-05 16:23:00,
2013-05-05 12:32:00,60.0,39.0,30.28,ESE,106,1.0,9.0,46,0.00,,,0.00,,2013-05-05 16:32:00,
2013-05-05 12:42:00,60.0,39.0,30.28,ESE,106,1.0,9.0,46,0.00,,,0.00,,2013-05-05 16:42:00,
2013-05-05 12:52:00,60.0,40.0,30.27,SSW,200,1.0,6.0,48,0.00,,,0.00,,2013-05-05 16:52:00,
2013-05-05 13:02:00,61.0,39.0,30.27,SW,226,3.0,6.0,44,0.00,,,0.00,,2013-05-05 17:02:00,
2013-05-05 13:12:00,61.0,39.0,30.27,SW,226,3.0,6.0,44,0.00,,,0.00,,2013-05-05 17:12:00,
2013-05-05 13:23:00,61.0,38.0,30.27,ENE,70,6.0,13.0,43,0.00,,,0.00,,2013-05-05 17:23:00,
2013-05-05 13:32:00,61.0,37.0,30.26,NNE,23,5.0,9.0,41,0.00,,,0.00,,2013-05-05 17:32:00,
2013-05-05 13:42:00,61.0,37.0,30.26,NNE,23,5.0,9.0,41,0.00,,,0.00,,2013-05-05 17:42:00,
2013-05-05 13:52:00,63.0,38.0,30.27,ENE,68,3.0,9.0,40,0.00,,,0.00,,2013-05-05 17:52:00,
2013-05-05 14:01:00,62.0,37.0,30.27,North,353,1.0,9.0,40,0.00,,,0.00,,2013-05-05 18:01:00,
2013-05-05 14:12:00,62.0,37.0,30.27,North,353,1.0,9.0,40,0.00,,,0.00,,2013-05-05 18:12:00,
2013-05-05 14:21:00,64.0,38.0,30.26,ENE,70,3.0,9.0,38,0.00,,,0.00,,2013-05-05 18:21:00,
2013-05-05 14:32:00,64.0,38.0,30.26,ENE,67,4.0,9.0,38,0.00,,,0.00,,2013-05-05 18:32:00,
2013-05-05 14:42:00,64.0,38.0,30.26,ENE,67,4.0,9.0,38,0.00,,,0.00,,2013-05-05 18:42:00,
2013-05-05 14:52:00,64.0,37.0,30.25,East,99,2.0,8.0,37,0.00,,,0.00,,2013-05-05 18:52:00,
2013-05-05 15:01:00,66.0,40.0,30.25,SSW,203,1.0,9.0,38,0.00,,,0.00,,2013-05-05 19:01:00,
2013-05-05 15:11:00,66.0,40.0,30.25,SSW,203,1.0,9.0,38,0.00,,,0.00,,2013-05-05 19:11:00,
2013-05-05 15:21:00,65.0,39.0,30.24,NE,47,3.0,10.0,38,0.00,,,0.00,,2013-05-05 19:21:00,
2013-05-05 15:32:00,66.0,41.0,30.24,NE,52,3.0,7.0,40,0.00,,,0.00,,2013-05-05 19:32:00,
2013-05-05 15:42:00,66.0,41.0,30.24,NE,52,3.0,7.0,40,0.00,,,0.00,,2013-05-05 19:42:00,
2013-05-05 15:52:00,65.0,38.0,30.23,East,79,2.0,8.0,37,0.00,,,0.00,,2013-05-05 19:52:00,
2013-05-05 16:01:00,66.0,40.0,30.23,ESE,120,2.0,7.0,38,0.00,,,0.00,,2013-05-05 20:01:00,
2013-05-05 16:11:00,66.0,40.0,30.23,ESE,120,2.0,7.0,38,0.00,,,0.00,,2013-05-05 20:11:00,
2013-05-05 16:21:00,66.0,38.0,30.23,SSE,150,3.0,8.0,36,0.00,,,0.00,,2013-05-05 20:21:00,
2013-05-05 16:32:00,65.0,39.0,30.22,West,275,1.0,13.0,38,0.00,,,0.00,,2013-05-05 20:32:00,
2013-05-05 16:42:00,65.0,39.0,30.22,West,275,1.0,13.0,38,0.00,,,0.00,,2013-05-05 20:42:00,
2013-05-05 16:52:00,67.0,40.0,30.22,SSE,166,1.0,8.0,37,0.00,,,0.00,,2013-05-05 20:52:00,
2013-05-05 17:02:00,67.0,39.0,30.22,NE,45,3.0,8.0,36,0.00,,,0.00,,2013-05-05 21:02:00,
2013-05-05 17:11:00,67.0,39.0,30.22,NE,45,3.0,8.0,36,0.00,,,0.00,,2013-05-05 21:11:00,
2013-05-05 17:21:00,67.0,40.0,30.22,ENE,72,2.0,5.0,37,0.00,,,0.00,,2013-05-05 21:21:00,
2013-05-05 17:33:00,67.0,40.0,30.22,ENE,76,2.0,10.0,37,0.00,,,0.00,,2013-05-05 21:33:00,
2013-05-05 17:42:00,67.0,40.0,30.22,ENE,76,2.0,10.0,37,0.00,,,0.00,,2013-05-05 21:42:00,
2013-05-05 17:53:00,66.0,39.0,30.22,NNE,20,4.0,9.0,37,0.00,,,0.00,,2013-05-05 21:53:00,
2013-05-05 18:03:00,67.0,40.0,30.21,SW,225,3.0,10.0,37,0.00,,,0.00,,2013-05-05 22:03:00,
2013-05-05 18:12:00,67.0,40.0,30.21,SW,225,3.0,10.0,37,0.00,,,0.00,,2013-05-05 22:12:00,
2013-05-05 18:22:00,68.0,41.0,30.21,East,92,2.0,4.0,37,0.00,,,0.00,,2013-05-05 22:22:00,
2013-05-05 18:33:00,67.0,40.0,30.21,East,83,3.0,6.0,37,0.00,,,0.00,,2013-05-05 22:33:00,
2013-05-05 18:42:00,67.0,40.0,30.21,East,83,3.0,6.0,37,0.00,,,0.00,,2013-05-05 22:42:00,
2013-05-05 18:52:00,63.0,45.0,30.22,SSW,208,6.0,10.0,51,0.00,,,0.00,,2013-05-05 22:52:00,
2013-05-05 19:02:00,62.0,45.0,30.22,SSW,204,2.0,7.0,54,0.00,,,0.00,,2013-05-05 23:02:00,
2013-05-05 19:12:00,62.0,45.0,30.22,SSW,204,2.0,7.0,54,0.00,,,0.00,,2013-05-05 23:12:00,
2013-05-05 19:21:00,60.0,44.0,30.22,SE,146,7.0,12.0,56,0.00,,,0.00,,2013-05-05 23:21:00,
2013-05-05 19:32:00,59.0,45.0,30.23,South,177,4.0,7.0,59,0.00,,,0.00,,2013-05-05 23:32:00,
2013-05-05 19:42:00,59.0,45.0,30.23,South,177,4.0,7.0,59,0.00,,,0.00,,2013-05-05 23:42:00,
2013-05-05 19:52:00,57.0,44.0,30.24,SSW,203,4.0,8.0,62,0.00,,,0.00,,2013-05-05 23:52:00,
2013-05-05 20:01:00,56.0,44.0,30.24,SE,136,2.0,8.0,65,0.00,,,0.00,,2013-05-06 00:01:00,
2013-05-05 20:11:00,56.0,44.0,30.24,SE,136,2.0,8.0,65,0.00,,,0.00,,2013-05-06 00:11:00,
2013-05-05 20:21:00,54.0,43.0,30.24,SE,135,4.0,9.0,67,0.00,,,0.00,,2013-05-06 00:21:00,
2013-05-05 20:32:00,53.0,43.0,30.25,SSW,208,3.0,6.0,69,0.00,,,0.00,,2013-05-06 00:32:00,
2013-05-05 20:42:00,53.0,43.0,30.25,SSW,208,3.0,6.0,69,0.00,,,0.00,,2013-05-06 00:42:00,
2013-05-05 20:51:00,52.0,43.0,30.26,SSW,194,3.0,7.0,71,0.00,,,0.00,,2013-05-06 00:51:00,
2013-05-05 21:01:00,51.0,43.0,30.26,SSE,166,3.0,5.0,73,0.00,,,0.00,,2013-05-06 01:01:00,
2013-05-05 21:11:00,51.0,43.0,30.26,SSE,166,3.0,5.0,73,0.00,,,0.00,,2013-05-06 01:11:00,
2013-05-05 21:21:00,50.0,42.0,30.27,South,170,4.0,8.0,74,0.00,,,0.00,,2013-05-06 01:21:00,
2013-05-05 21:32:00,50.0,42.0,30.27,South,190,2.0,7.0,75,0.00,,,0.00,,2013-05-06 01:32:00,
2013-05-05 21:42:00,50.0,42.0,30.27,South,190,2.0,7.0,75,0.00,,,0.00,,2013-05-06 01:42:00,
2013-05-05 21:52:00,49.0,42.0,30.27,WSW,237,2.0,5.0,76,0.00,,,0.00,,2013-05-06 01:52:00,
2013-05-05 22:02:00,48.0,40.0,30.28,SE,136,3.0,5.0,75,0.00,,,0.00,,2013-05-06 02:02:00,
2013-05-05 22:12:00,48.0,40.0,30.28,SE,136,3.0,5.0,75,0.00,,,0.00,,2013-05-06 02:12:00,
2013-05-05 22:21:00,47.0,40.0,30.28,ESE,107,1.0,3.0,76,0.00,,,0.00,,2013-05-06 02:21:00,
2013-05-05 22:32:00,47.0,40.0,30.28,SE,145,0.0,1.0,77,0.00,,,0.00,,2013-05-06 02:32:00,
2013-05-05 22:42:00,47.0,40.0,30.28,SE,145,0.0,1.0,77,0.00,,,0.00,,2013-05-06 02:42:00,
2013-05-05 22:51:00,46.0,40.0,30.28,ESE,119,0.0,2.0,79,0.00,,,0.00,,2013-05-06 02:51:00,
2013-05-05 23:02:00,45.0,39.0,30.27,SSE,159,0.0,0.0,80,0.00,,,0.00,,2013-05-06 03:02:00,
2013-05-05 23:11:00,45.0,39.0,30.27,SSE,159,0.0,0.0,80,0.00,,,0.00,,2013-05-06 03:11:00,
2013-05-05 23:22:00,45.0,40.0,30.27,SSE,159,0.0,0.0,82,0.00,,,0.00,,2013-05-06 03:22:00,
2013-05-05 23:33:00,44.0,39.0,30.27,SSE,159,0.0,0.0,83,0.00,,,0.00,,2013-05-06 03:33:00,
2013-05-05 23:42:00,44.0,39.0,30.27,SSE,159,0.0,0.0,83,0.00,,,0.00,,2013-05-06 03:42:00,
2013-05-05 23:52:00,44.0,40.0,30.27,SSE,159,0.0,0.0,85,0.00,,,0.00,,2013-05-06 03:52:00,